Location: Cantaing
(50.1487°N, 3.1675°E)
Time: 11:19:49
(UTC+00:00)

Cosmos 2082 Rocket - Pass Details

Date: 14 January 2026
Orbit: 832 x 853 km, 71.0° (Epoch: 11 February)

Event Time Altitude Azimuth Distance (km) Brightness Sun altitude
Exits shadow 06:50:42 - 322° (NW) 2,832 4.4 -8.0°
Reaches altitude 10° 06:51:42 10° 319° (NW) 2,472 4.1 -7.8°
Maximum altitude 06:56:55 39° 252° (WSW) 1,247 2.8 -7.0°
Drops below altitude 10° 07:02:08 10° 185° (S) 2,469 4.9 -6.3°
Sets 07:04:43 0° 178° (S) 3,402 5.8 -5.9°
